Kenai, AK

1:10 PM AKDT on May 29, 2017 (GMT -0800)
Kenai Municipal

Weather History for PAEN - January, 2014

Change the Weather History Date:

Tuesday, January 21, 2014

  Actual Average Record
Temperature  
Mean Temperature 36 °F -  
Max Temperature 39 °F 22 °F 42 °F (1987)
Min Temperature 33 °F 8 °F -37 °F (1989)
Degree Days  
Heating Degree Days 28    
Moisture  
Dew Point 34 °F    
Average Humidity 91    
Maximum Humidity 100    
Minimum Humidity 78    
Precipitation  
Precipitation 0.11 in - - ()
Sea Level Pressure  
Sea Level Pressure 29.51 in    
Wind  
Wind Speed 11 mph (ENE)    
Max Wind Speed 20 mph    
Max Gust Speed -    
Visibility 10 miles    
Events Rain    
Averages and records for this station are not official NWS values.
T = Trace of Precipitation, MM = Missing Value Source: NWS Daily Summary

Daily Weather History Graph

Daily Weather History Graph

Search for Another Location

Airport or City:

Trip Planner

Search our weather history database for the weather conditions in past years. The results will help you decide how hot, cold, wet, or windy it might be!

Date:

Astronomy

Jan. 21, 2014 Rise Set
Actual Time 9:45 AM AKST 4:47 PM AKST
Civil Twilight 8:53 AM AKST 5:39 PM AKST
Nautical Twilight 7:59 AM AKST 6:33 PM AKST
Astronomical Twilight 7:09 AM AKST 7:24 PM AKST
Moon No Moon Rise 10:42 AM AKST (1/21)
Length of Visible Light 8h 46m
Length of Day
7h 02m
Waning Gibbous, 73% of the Moon is Illuminated
Jan 21
Waning Gibbous
Jan 23
Last Quarter
Jan 30
New
Feb 6
First Quarter
Feb 14
Full

Hourly Weather History & Observations

Time (AKST) Temp. Windchill Dew Point Humidity Pressure Visibility Wind Dir Wind Speed Gust Speed Precip Events Conditions
12:53 AM 37.9 °F 29.2 °F 32.0 °F 79% 29.52 in 10.0 mi NNE 15.0 mph - N/A   Overcast
1:53 AM 36.0 °F 26.7 °F 30.9 °F 82% 29.49 in 10.0 mi NNE 15.0 mph - N/A   Overcast
3:53 AM 35.1 °F 26.9 °F 30.0 °F 82% 29.44 in 10.0 mi North 11.5 mph - N/A   Overcast
4:53 AM 34.0 °F 24.2 °F 30.9 °F 89% 29.42 in 10.0 mi NNE 15.0 mph - 0.00 in Rain Light Rain
5:53 AM 34.0 °F 23.0 °F 30.0 °F 85% 29.40 in 10.0 mi North 18.4 mph - 0.00 in Rain Light Rain
6:53 AM 35.1 °F 24.1 °F 30.9 °F 85% 29.37 in 10.0 mi NNE 19.6 mph - 0.00 in   Overcast
7:53 AM 35.1 °F 24.5 °F 28.9 °F 78% 29.36 in 10.0 mi NNE 18.4 mph - N/A   Overcast
8:53 AM 35.1 °F 25.5 °F 30.9 °F 85% 29.36 in 10.0 mi NNE 15.0 mph - N/A   Overcast
9:53 AM 34.0 °F 28.8 °F 30.9 °F 89% 29.39 in 10.0 mi NNE 5.8 mph - N/A   Scattered Clouds
10:53 AM 36.0 °F 26.7 °F 30.9 °F 82% 29.42 in 10.0 mi NE 15.0 mph - N/A   Overcast
11:53 AM 35.1 °F 32.2 °F 32.0 °F 89% 29.44 in 10.0 mi North 3.5 mph - N/A   Mostly Cloudy
12:53 PM 39.0 °F 34.8 °F 33.1 °F 79% 29.45 in 10.0 mi East 5.8 mph - N/A   Overcast
1:53 PM 39.9 °F 34.5 °F 35.1 °F 83% 29.47 in 10.0 mi ESE 8.1 mph - 0.01 in Rain Light Rain
2:53 PM 37.9 °F 32.7 °F 37.0 °F 97% 29.50 in 7.0 mi East 6.9 mph - 0.06 in Rain Light Rain
3:53 PM 39.0 °F 34.8 °F 37.9 °F 96% 29.52 in 6.0 mi SSE 5.8 mph - 0.02 in Rain Light Rain
4:37 PM 37.4 °F 34.9 °F 37.4 °F 100% 29.54 in 10.0 mi SE 3.5 mph - 0.02 in Rain Light Rain
4:46 PM 37.4 °F 34.9 °F 37.4 °F 100% 29.54 in 10.0 mi SE 3.5 mph - 0.02 in Rain Light Rain
4:53 PM 37.9 °F 35.5 °F 37.9 °F 100% 29.55 in 10.0 mi SSE 3.5 mph - 0.02 in Rain Light Rain
5:05 PM 37.4 °F 34.9 °F 37.4 °F 100% 29.55 in 10.0 mi SE 3.5 mph - 0.00 in   Overcast
5:44 PM 37.4 °F 29.3 °F 35.6 °F 93% 29.58 in 10.0 mi WSW 12.7 mph - 0.00 in   Overcast
5:53 PM 36.0 °F 28.5 °F 35.1 °F 97% 29.60 in 10.0 mi WSW 10.4 mph - 0.00 in   Mostly Cloudy
6:53 PM 35.1 °F 29.3 °F 34.0 °F 96% 29.62 in 10.0 mi South 6.9 mph - N/A   Overcast
7:27 PM 35.6 °F 31.7 °F 33.8 °F 93% 29.61 in 10.0 mi South 4.6 mph - N/A   Overcast
7:53 PM 34.0 °F - 34.0 °F 100% 29.63 in 10.0 mi Calm Calm - N/A   Overcast
8:53 PM 34.0 °F - 34.0 °F 100% 29.64 in 10.0 mi Calm Calm - N/A   Overcast
9:53 PM 34.0 °F 29.8 °F 34.0 °F 100% 29.65 in 10.0 mi East 4.6 mph - N/A   Overcast
10:53 PM 34.0 °F - 34.0 °F 100% 29.66 in 10.0 mi Calm Calm - N/A   Overcast
11:53 PM 33.1 °F 30.0 °F 33.1 °F 100% 29.67 in 10.0 mi Variable 3.5 mph - N/A   Mostly Cloudy